Glendale Luke AFB, AZ

12:55 AM MST on July 23, 2017 (GMT -0700)
Luke Air Force Base

Weather History for KLUF - February, 2013

Change the Weather History Date:

Thursday, February 14, 2013

  Actual Average Record
Temperature  
Mean Temperature 52 °F -  
Max Temperature 68 °F 72 °F 88 °F (1957)
Min Temperature 37 °F 41 °F 27 °F (1946)
Degree Days  
Heating Degree Days 12    
Growing Degree Days 2 (Base 50)    
Moisture  
Dew Point 31 °F    
Average Humidity 49    
Maximum Humidity 76    
Minimum Humidity 23    
Precipitation  
Precipitation 0.00 in - - ()
Sea Level Pressure  
Sea Level Pressure 30.10 in    
Wind  
Wind Speed 5 mph (North)    
Max Wind Speed 8 mph    
Max Gust Speed -    
Visibility 10 miles    
Events      
Averages and records for this station are not official NWS values.
T = Trace of Precipitation, MM = Missing Value Source: NWS Daily Summary

Daily Weather History Graph

Daily Weather History Graph

Search for Another Location

Airport or City:

Trip Planner

Search our weather history database for the weather conditions in past years. The results will help you decide how hot, cold, wet, or windy it might be!

Date:

Astronomy

Feb. 14, 2013 Rise Set
Actual Time 7:14 AM MST 6:13 PM MST
Civil Twilight 6:48 AM MST 6:38 PM MST
Nautical Twilight 6:19 AM MST 7:08 PM MST
Astronomical Twilight 5:50 AM MST 7:37 PM MST
Moon 9:35 AM MST (2/14) 11:01 PM MST (2/14)
Length of Visible Light 11h 50m
Length of Day
10h 59m
Waxing Crescent, 22% of the Moon is Illuminated
Feb 14
Waxing Crescent
Feb 17
First Quarter
Feb 25
Full
Mar 4
Last Quarter
Mar 11
New

Hourly Weather History & Observations

Time (MST) Temp. Windchill Dew Point Humidity Pressure Visibility Wind Dir Wind Speed Gust Speed Precip Events Conditions
12:58 AM 43.0 °F 39.5 °F 30.6 °F 62% 30.12 in 10.0 mi North 5.8 mph - N/A   Clear
1:58 AM 41.4 °F 37.6 °F 31.8 °F 69% 30.11 in 10.0 mi North 5.8 mph - N/A   Clear
2:58 AM 42.6 °F 38.4 °F 30.0 °F 61% 30.11 in 10.0 mi NW 6.9 mph - N/A   Clear
3:58 AM 40.5 °F 37.3 °F 30.2 °F 67% 30.11 in 10.0 mi East 4.6 mph - N/A   Clear
4:58 AM 37.9 °F 32.7 °F 31.1 °F 76% 30.11 in 10.0 mi North 6.9 mph - N/A   Clear
5:58 AM 37.9 °F 33.5 °F 30.2 °F 74% 30.11 in 10.0 mi NNE 5.8 mph - N/A   Clear
6:58 AM 38.5 °F 35.0 °F 31.1 °F 75% 30.15 in 10.0 mi North 4.6 mph - N/A   Clear
7:58 AM 39.7 °F 35.6 °F 32.5 °F 75% 30.14 in 10.0 mi North 5.8 mph - N/A   Clear
8:58 AM 47.5 °F - 34.2 °F 60% 30.15 in 10.0 mi Variable 2.3 mph - N/A   Clear
9:58 AM 50.4 °F - 30.2 °F 46% 30.16 in 10.0 mi East 2.3 mph - N/A   Clear
10:58 AM 54.3 °F - 29.3 °F 38% 30.15 in 10.0 mi SE 2.3 mph - N/A   Clear
11:58 AM 57.7 °F - 28.6 °F 33% 30.13 in 10.0 mi Calm Calm - N/A   Clear
12:58 PM 62.8 °F - 27.9 °F 27% 30.12 in 10.0 mi South 8.1 mph - N/A   Clear
1:58 PM 64.2 °F - 27.1 °F 25% 30.09 in 10.0 mi SSW 6.9 mph - N/A   Clear
2:58 PM 66.4 °F - 27.9 °F 24% 30.06 in 10.0 mi Variable 1.2 mph - N/A   Clear
3:58 PM 67.6 °F - 28.9 °F 24% 30.04 in 10.0 mi Variable 1.2 mph - N/A   Clear
4:58 PM 68.4 °F - 29.5 °F 23% 30.03 in 10.0 mi West 2.3 mph - N/A   Clear
5:58 PM 66.7 °F - 29.8 °F 25% 30.03 in 10.0 mi SW 8.1 mph - N/A   Clear
6:58 PM 60.6 °F - 33.1 °F 36% 30.04 in 10.0 mi SW 4.6 mph - N/A   Clear
7:58 PM 58.8 °F - 34.5 °F 40% 30.06 in 10.0 mi East 3.5 mph - N/A   Clear
8:58 PM 53.6 °F - 37.2 °F 54% 30.08 in 10.0 mi NE 3.5 mph - N/A   Clear
9:58 PM 51.3 °F - 37.2 °F 59% 30.11 in 10.0 mi North 8.1 mph - N/A   Clear
10:58 PM 52.7 °F - 34.9 °F 51% 30.13 in 10.0 mi NNW 8.1 mph - N/A   Clear
11:58 PM 48.0 °F - 36.3 °F 64% 30.14 in 10.0 mi NNW 4.6 mph - N/A   Clear